Tracking 28790 objects as of 19-Apr-2024
HD Live streaming from Space Station
objects crossing your sky now

COSMOS 2547 (GLONASS)

Track COSMOS 2547 (GLONASS) now!
COSMOS 2547 (GLONASS) is classified as:


NORAD ID: 46805
Int'l Code: 2020-075A
Perigee: 19,119.0 km
Apogee: 19,154.9 km
Inclination: 64.6 °
Period: 675.7 minutes
Semi major axis: 25507 km
RCS: Unknown
Launch date: October 25, 2020
Source: Commonwealth of Independent States (former USSR) (CIS)
Launch site: PLESETSK MISSILE AND SPACE COMPLEX (PKMTR)
SV: 705K
Your satellite tracking list
Your tracking list is empty




NASA's NSSDC Master Catalog

Two Line Element Set (TLE):
1 46805U 20075A   24109.64766743 -.00000038  00000-0  00000-0 0  9998
2 46805  64.6019 218.8701 0007047 237.4401 122.4889  2.13103178 27084
Source of the keplerian elements: AFSPC